Waukegan, IL

3:52 AM CDT on July 26, 2017 (GMT -0500)
Waukegan Regional

Weather History for KUGN - October, 2012

Change the Weather History Date:

Saturday, October 6, 2012

  Actual Average Record
Temperature  
Mean Temperature 41 °F -  
Max Temperature 49 °F 63 °F 85 °F (2007)
Min Temperature 33 °F 45 °F 31 °F (2001)
Degree Days  
Heating Degree Days 24 12  
Month to date heating degree days 68 65  
Since 1 July heating degree days 248 231  
Cooling Degree Days 0 1  
Month to date cooling degree days 0 6  
Year to date cooling degree days 981 563  
Moisture  
Dew Point 27 °F    
Average Humidity 59    
Maximum Humidity 75    
Minimum Humidity 42    
Precipitation  
Precipitation 0.00 in 0.09 in 0.20 in (2016)
Month to date precipitation 0.06 0.70  
Year to date precipitation 19.94 28.61  
Sea Level Pressure  
Sea Level Pressure 30.12 in    
Wind  
Wind Speed 6 mph (WNW)    
Max Wind Speed 16 mph    
Max Gust Speed 25 mph    
Visibility 10 miles    
Events      
T = Trace of Precipitation, MM = Missing Value Source: NWS Daily Summary

Daily Weather History Graph

Daily Weather History Graph

Search for Another Location

Airport or City:

Trip Planner

Search our weather history database for the weather conditions in past years. The results will help you decide how hot, cold, wet, or windy it might be!

Date:

Astronomy

Oct. 06, 2012 Rise Set
Actual Time 6:54 AM CDT 6:23 PM CDT
Civil Twilight 6:26 AM CDT 6:51 PM CDT
Nautical Twilight 5:54 AM CDT 7:24 PM CDT
Astronomical Twilight 5:21 AM CDT 7:56 PM CDT
Moon 10:33 PM CDT (10/6) 12:54 PM CDT (10/6)
Length of Visible Light 12h 24m
Length of Day
11h 28m
Waning Gibbous, 65% of the Moon is Illuminated
Oct 6
Waning Gibbous
Oct 8
Last Quarter
Oct 15
New
Oct 21
First Quarter
Oct 29
Full

Hourly Weather History & Observations

Time (CDT) Temp. Windchill Dew Point Humidity Pressure Visibility Wind Dir Wind Speed Gust Speed Precip Events Conditions
12:52 AM 39.0 °F 34.8 °F 24.1 °F 55% 30.05 in 10.0 mi West 5.8 mph - N/A   Clear
1:52 AM 37.9 °F 34.4 °F 24.1 °F 57% 30.05 in 10.0 mi Variable 4.6 mph - N/A   Clear
2:52 AM 36.0 °F - 25.0 °F 64% 30.06 in 10.0 mi Calm Calm - N/A   Clear
3:52 AM 35.1 °F - 26.1 °F 70% 30.06 in 10.0 mi Calm Calm - N/A   Clear
4:52 AM 35.1 °F - 26.1 °F 70% 30.07 in 10.0 mi Calm Calm - N/A   Mostly Cloudy
5:52 AM 34.0 °F 29.8 °F 26.1 °F 73% 30.09 in 10.0 mi Variable 4.6 mph - N/A   Clear
6:52 AM 34.0 °F - 27.0 °F 75% 30.10 in 10.0 mi Calm Calm - N/A   Clear
7:52 AM 37.9 °F 35.5 °F 28.0 °F 68% 30.11 in 10.0 mi Variable 3.5 mph - N/A   Clear
8:52 AM 42.1 °F 37.1 °F 27.0 °F 55% 30.12 in 10.0 mi West 8.1 mph 17.3 mph N/A   Clear
9:52 AM 44.1 °F 37.7 °F 26.1 °F 49% 30.12 in 10.0 mi NW 12.7 mph 21.9 mph N/A   Partly Cloudy
10:52 AM 45.0 °F 38.9 °F 27.0 °F 49% 30.13 in 10.0 mi WNW 12.7 mph 24.2 mph N/A   Partly Cloudy
11:52 AM 48.0 °F - 27.0 °F 44% 30.14 in 10.0 mi WNW 9.2 mph 16.1 mph N/A   Scattered Clouds
12:52 PM 48.0 °F - 27.0 °F 44% 30.15 in 10.0 mi WNW 12.7 mph 17.3 mph N/A   Mostly Cloudy
1:52 PM 46.9 °F - 27.0 °F 46% 30.14 in 10.0 mi WNW 11.5 mph 16.1 mph N/A   Overcast
2:52 PM 46.9 °F - 27.0 °F 46% 30.14 in 10.0 mi NW 9.2 mph - N/A   Overcast
3:52 PM 46.0 °F 41.9 °F 26.1 °F 46% 30.14 in 10.0 mi NW 8.1 mph - N/A   Overcast
4:52 PM 46.0 °F 42.5 °F 27.0 °F 47% 30.15 in 10.0 mi WNW 6.9 mph - N/A   Overcast
5:52 PM 45.0 °F 43.5 °F 27.0 °F 49% 30.17 in 10.0 mi Variable 3.5 mph - N/A   Overcast
6:52 PM 45.0 °F 43.5 °F 27.0 °F 49% 30.17 in 10.0 mi West 3.5 mph - N/A   Overcast
7:52 PM 44.1 °F 40.1 °F 28.0 °F 53% 30.18 in 10.0 mi WNW 6.9 mph - N/A   Overcast
8:52 PM 44.1 °F 39.0 °F 27.0 °F 51% 30.17 in 10.0 mi WNW 9.2 mph - N/A   Overcast
9:52 PM 43.0 °F 40.3 °F 27.0 °F 53% 30.17 in 10.0 mi West 4.6 mph - N/A   Overcast
10:52 PM 42.1 °F 39.2 °F 28.0 °F 58% 30.18 in 10.0 mi WNW 4.6 mph - N/A   Overcast